CZ-6A DEB, 60861

Orbit data source: Space-Track

CZ-6A DEB, 60861 is space debris in LEO originally from a launch on Tue, 06 Aug 2024 UTC launched from the Taiyaun Space Center, China (TSC). Debris objects in space refer to the collection of defunct objects orbiting the Earth. Examples of debris include non-operational satellites, rocket bodies, and fragments generated from explosions, collisions, or faulty payload assembly.

Loading next visibility...
Identifier
60861, 2024-140JQ
Orbit
LEO
Country
Flag of CNCN / PRC
Related business
Manufacturer
SAST
Mission
Spacecraft
Bus & Motor
Unknown
Mass
Unknown
Launch date (UTC)
2024-08-06 (2 years ago)
Launch vehicle
Unknown
Launch site
Taiyaun Space Center, China (TSC)
Object type
Payload
Rocket body
Debris
Shape & HBR
Unknown shape, 0.2 m
Radar Cross Section
Medium (>0.1 m² and <1 m²)

Expand to show TLE details & history
Last TLE update: 14 hours ago

TLE from 14 hours ago
0 CZ-6A DEB
1 60861U 24140JQ  26171.28718019  .00067018  00000-0  23032-2 0  9999
2 60861  89.0624 271.2454 0058910  77.8454 282.9387 15.28161663100712
Epoch: 2026-06-20T06:53Z
TLE epoch observation values (Epoch: 2026-06-20T06:53:32.368Z)
Latitude
0.00002°
Longitude
-100.64344°
Altitude
475.691 km
Speed
7.633 km/s
True Right ascension
18h 04m 58s
True Declination
0° 00' 00"
Sunlit
Object was in full shadow at epoch
Visualization orbit readout
Latitude
Unknown
Longitude
Unknown
Altitude
Unknown
Speed
Unknown
Apparent Right ascension
Unknown
Apparent Declination
Unknown
Sunlit
N/A
Visualization observer readout
Local Sidereal Time
07:24:30
Azimuth
Unknown
Elevation
Unknown
Doppler factor
Unknown
Orbital elements
Apogee altitude
518.496 km
Perigee altitude
437.715 km
Semi-major axis
6,856.242 km
Eccentricity
0.00589
Inclination
89.0624°
RAAN
271.2454°
Arg. of periapsis
77.8454°
True anomaly
282.27971°
Mean anomaly
282.9387°
Eccentric anomaly
282.60931°
Mean motion
3.82308 °/min
Orbital period
94.16 mins
BSTAR
0.0023032
Loading maneuver chart data...
Computing Atmospheric mass density...
Loading historical data...
Loading historical data...
Loading historical data...
Loading historical data...
Loading historical data...
Loading historical data...
Loading historical data...

Documentation

Showing up to 5 results
|